Antwerp

Airport
ICAO code: 
EBAW
IATA Code: 
ANR
Summary
ICAO Region: 
EUR
Territory: 
Location: 
Deurne, Antwerpen,
Serving: 
Antwerpen
Elevation: 
39 ft
Coordinates: 
Aerial View: 
51° 11' 22.56" N, 4° 27' 44.003" E
Metar
Observation
EBAW 191720Z 29011KT 9999 FEW021 18/13 Q1020 NOSIG
Station
Antwerpen / Deurne
Date/Time
2022-05-19 17:20:00
Wind direction
290°
Wind speed
11 kts
Lowest cloud amount
few clouds
Temperature
18°C
Dew point
13°C
Humidity
72%
QNH
1020 hPa
Weather condition
n/a

Description

Antwerpen International Airport is located 2 km from the city of Antwerp, Belgium.

Climatology

Temperate Marine climate/Oceanic climate (Köppen climate classification Cfb) - Moderately cool summer and comparatively warm winter.

Runways

Designator Length Width Surface Rops
11/29 1510 45 ASP Yes/Yes
Airport map: 
Aerial View: 

SKYbrary Partners:

Safety knowledge contributed by: